Station PCNT2 - 8773701 - Port O'Connor, Matagorda Bay, TX Image indicating link to RSS feed of recent meteorological observations for station PCNT2


Conditions at PCNT2 as of
(2:00 pm CDT)
1900 GMT on 06/22/2024:
     

Click on the graph icon in the table below to see a time series plot of the last five days of that observation.

5-day plot - Wind Direction Wind Direction (WDIR): NE ( 50 deg true )
5-day plot - Wind Speed Wind Speed (WSPD): 15.0 kts
5-day plot - Wind Gust Wind Gust (GST): 17.1 kts
5-day plot - Atmospheric Pressure Atmospheric Pressure (PRES):30.00 in
5-day plot - Pressure Tendency Pressure Tendency (PTDY):-0.02 in ( Falling )
5-day plot - Air Temperature Air Temperature (ATMP): 83.8 °F
5-day plot - Water Temperature Water Temperature (WTMP): 85.6 °F
5-day plot - Wind Speed at 10 Meters Wind Speed at 10 meters (WSPD10M): 15.5 kts
5-day plot - Wind Speed at 20 Meters Wind Speed at 20 meters (WSPD20M): 17.5 kts
5-day plot -  Wind Speed, Wind Gust and Atmospheric Pressure Combined plot of Wind Speed, Gust, and Air Pressure
Previous observations
TIME
(CDT)
5-day plot - Wind Direction
WDIR
 
5-day plot - Wind Speed
WSPD
kts
5-day plot - Wind Gust
GST
kts
5-day plot - Wave Height
WVHT
ft
5-day plot - Dominant Wave Period
DPD
sec
5-day plot - Average Wave Period
APD
sec
5-day plot - Mean Wave Direction
MWD
 
5-day plot - Atmospheric Pressure
PRES
in
5-day plot - Pressure Tendency
PTDY
in
5-day plot - Air Temperature
ATMP
°F
5-day plot - Water Temperature
WTMP
°F
5-day plot - Dew Point
DEWP
°F
5-day plot - Salinity
SAL
psu
5-day plot - Visibility
VIS
nmi
5-day plot - Tide (above MLLW)
TIDE
ft
2024-06-22 01:54 pm NE 14.0 17.1----30.00- 83.5 85.6----
2024-06-22 01:48 pm NE 12.0 14.0----30.00- 83.7 85.6----
2024-06-22 01:42 pm NE 14.0 15.9----30.00- 83.8 85.6----
2024-06-22 01:36 pmENE 15.0 17.1----30.00- 83.8 85.5----
2024-06-22 01:30 pm NE 14.0 18.1----30.00- 83.7 85.5----
2024-06-22 01:24 pm NE 14.0 17.1----30.00- 83.7 85.5----
2024-06-22 01:18 pmNNE 14.0 15.9----30.00- 83.5-----
2024-06-22 01:12 pm NE 13.0 17.1----30.01- 83.5-----
2024-06-22 01:06 pm NE 13.0 17.1----30.01- 83.7-----
2024-06-22 01:00 pm NE 14.0 17.1----30.01-0.01 83.7 85.5----
2024-06-22 12:54 pm NE 15.0 19.0----30.01- 84.0 85.3----
2024-06-22 12:48 pmENE 14.0 19.0----30.01- 84.0 85.3----
2024-06-22 12:42 pm NE 14.0 19.0----30.01- 83.7 85.3----
2024-06-22 12:36 pm NE 14.0 15.9----30.01- 83.8 85.3----
2024-06-22 12:30 pm NE 15.0 18.1----30.01- 84.0 85.3----
2024-06-22 12:24 pm NE 17.1 19.0----30.01- 84.0 85.1----
2024-06-22 12:18 pm NE 15.9 20.0----30.01- 83.8 85.1----
2024-06-22 12:12 pm NE 14.0 18.1----30.01- 83.7 85.1----
2024-06-22 12:06 pm NE 15.9 18.1----30.01- 83.7 85.1----
2024-06-22 12:00 pm NE 15.9 19.0----30.01-0.02 83.8 85.1----
2024-06-22 11:54 am NE 15.0 19.0----30.01- 84.2 85.1----
2024-06-22 11:48 am NE 14.0 19.0----30.01- 84.0 85.1----
2024-06-22 11:42 am NE 13.0 17.1----30.01- 84.0 85.1----
2024-06-22 11:36 am NE 15.9 18.1----30.01- 83.8 85.1----
2024-06-22 11:30 am NE 15.9 19.0----30.01- 84.0 85.1----
2024-06-22 11:24 am NE 14.0 17.1----30.01- 83.8 84.9----
2024-06-22 11:18 am NE 15.0 17.1----30.02- 83.7 84.9----
2024-06-22 11:12 am NE 13.0 17.1----30.02- 83.8 84.9----
2024-06-22 11:06 amNNE 13.0 18.1----30.01- 83.5 84.9----
2024-06-22 11:00 am NE 14.0 17.1----30.01-0.01 83.8 84.7----
2024-06-22 10:54 am NE 14.0 15.9----30.01- 83.8 84.7----
2024-06-22 10:48 am NE 13.0 17.1----30.01-- 84.7----
2024-06-22 10:42 am NE 13.0 17.1----30.02-- 84.7----
2024-06-22 10:36 amNNE 12.0 14.0----30.02-- 84.7----
2024-06-22 10:30 amNNE 11.1 14.0----30.02- 82.4 84.7----
2024-06-22 10:24 amNNE 11.1 14.0----30.02- 82.2 84.7----
2024-06-22 10:18 amNNE 11.1 14.0----30.02- 81.9 84.7----
2024-06-22 10:12 am N 11.1 13.0----30.02- 82.0 84.6----
2024-06-22 10:06 am N 12.0 13.0----30.02- 81.7 84.6----
2024-06-22 10:00 am N 12.0 13.0----30.02+0.00 82.0 84.6----
2024-06-22 09:54 amNNE 11.1 12.0----30.02- 81.9 84.6----
2024-06-22 09:48 amNNE 11.1 13.0----30.02- 82.0 84.6----
2024-06-22 09:42 am N 9.9 13.0----30.02- 81.9 84.4----
2024-06-22 09:36 am N 8.9 13.0----30.03- 81.9 84.4----
2024-06-22 09:30 am N 12.0 13.0----30.03- 81.7 84.4----
2024-06-22 09:24 am N 11.1 12.0----30.03- 81.7 84.2----
2024-06-22 09:18 am--------- 81.9 84.2----
2024-06-22 09:12 am--------- 81.9 84.2----
2024-06-22 09:06 am--------- 82.0 84.2----
2024-06-22 09:00 amNNE 9.9 12.0----30.03+0.02- 84.2----
2024-06-22 08:54 amNNE 11.1 13.0----30.03-- 84.2----
2024-06-22 08:48 amNNE 11.1 12.0----30.03- 81.7 84.2----
2024-06-22 08:42 amNNE 12.0 13.0----30.03- 81.3 84.2----
2024-06-22 08:36 amNNE 11.1 12.0----30.03- 81.5 84.2----
2024-06-22 08:30 amNNE 11.1 12.0----30.03- 81.3 84.2----
2024-06-22 08:24 am N 11.1 12.0----30.03- 81.3 84.2----
2024-06-22 08:18 am N 9.9 12.0----30.03- 81.3 84.2----
2024-06-22 08:12 am N 12.0 12.0----30.03- 81.0 84.2----
2024-06-22 08:06 am N 11.1 12.0----30.03- 81.0 84.2----
2024-06-22 08:00 am N 11.1 12.0----30.02+0.01 81.0-----
2024-06-22 07:54 am N 11.1 13.0----30.02- 81.5-----
2024-06-22 07:48 am N 11.1 12.0----30.02-------
2024-06-22 07:42 am N 11.1 13.0----30.02-------
2024-06-22 07:36 am N 9.9 12.0----30.02-------
2024-06-22 07:30 amNNE 12.0 14.0------- 83.8----
2024-06-22 07:24 amNNE 11.1 14.0------- 84.0----
2024-06-22 07:18 amNNE 12.0 14.0----30.02- 82.8 84.0----
2024-06-22 07:12 amNNE 13.0 15.0----30.02- 82.4 83.8----
2024-06-22 07:06 amNNE 12.0 14.0----30.02- 82.4 84.0----
2024-06-22 07:00 am-------30.02+0.01- 84.0----
2024-06-22 06:54 am-------30.01-- 84.0----
2024-06-22 06:48 am NE 11.1 12.0----30.02- 82.4 84.0----
2024-06-22 06:42 am NE 12.0 13.0----30.01- 82.4 84.0----
2024-06-22 06:36 am NE 11.1 13.0----30.02- 82.4 84.0----
2024-06-22 06:30 am NE 12.0 14.0----30.02- 82.4 84.0----
2024-06-22 06:24 am NE 12.0 13.0----30.01- 82.2 84.0----
2024-06-22 06:18 am NE 9.9 12.0----30.01-- 84.0----
2024-06-22 06:12 am NE 9.9 11.1----30.01-- 84.0----
2024-06-22 06:06 am NE 11.1 12.0----30.01-- 84.0----
2024-06-22 06:00 am NE 11.1 12.0----30.01- 82.2 84.0----
2024-06-22 05:54 am NE 11.1 13.0----30.01- 82.2 84.0----
2024-06-22 05:48 am NE 12.0 13.0----30.01- 82.2 84.0----
2024-06-22 05:42 am NE 8.9 9.9----30.01- 82.4 84.0----
2024-06-22 05:36 am NE 8.9 11.1----30.01- 82.2 84.0----
2024-06-22 05:30 am NE 9.9 12.0----30.01- 82.2-----
2024-06-22 05:24 am NE 11.1 13.0----30.01- 82.4-----
2024-06-22 05:18 am NE 11.1 12.0----30.01- 82.2 84.2----
2024-06-22 05:12 am NE 8.9 11.1----30.01- 82.2 84.2----
2024-06-22 05:06 am NE 8.9 12.0----30.01- 82.4 84.2----
2024-06-22 05:00 am NE 9.9 12.0----30.01+0.00 82.2 84.2----
2024-06-22 04:54 amENE 9.9 13.0----30.01- 82.2 84.2----
2024-06-22 04:48 amENE 9.9 11.1----30.01-- 84.2----
2024-06-22 04:42 amENE 11.1 13.0----30.01-- 84.2----
2024-06-22 04:36 amENE 11.1 14.0----30.01-- 84.2----
2024-06-22 04:30 amENE 11.1 13.0----30.01- 81.9 84.4----
2024-06-22 04:24 amENE 11.1 14.0----30.01- 82.2 84.4----
2024-06-22 04:18 amENE 13.0 14.0----30.01- 82.4 84.4----
2024-06-22 04:12 amENE 12.0 15.0----30.01- 82.4 84.4----
2024-06-22 04:06 amENE 13.0 15.0----30.01- 82.6 84.4----
2024-06-22 04:00 amENE 12.0 15.0----30.01-0.01 82.6 84.4----
2024-06-22 03:54 amENE 13.0 15.0----30.01- 82.4 84.4----
2024-06-22 03:48 amENE 11.1 14.0----30.01- 82.4 84.4----
2024-06-22 03:42 amENE 13.0 15.0----30.01- 82.6 84.4----
2024-06-22 03:36 amENE 13.0 15.0----30.01- 82.2 84.6----
2024-06-22 03:30 amENE 13.0 14.0----30.01-- 84.6----
2024-06-22 03:24 amENE 12.0 15.9----30.01-- 84.6----
2024-06-22 03:18 amENE 13.0 15.0----30.01-- 84.6----
2024-06-22 03:12 amENE 12.0 15.0----30.01-- 84.6----
2024-06-22 03:06 amENE 12.0 14.0----30.01-- 84.6----
2024-06-22 03:00 amENE 12.0 15.0------------
2024-06-22 02:54 amENE 12.0 15.0------------
2024-06-22 02:48 amENE 11.1 14.0----30.02- 82.6 84.6----
2024-06-22 02:42 amENE 12.0 14.0----30.01- 82.6 84.6----
2024-06-22 02:36 amENE 13.0 15.9----30.01- 82.8 84.6----
2024-06-22 02:30 amENE 13.0 15.9----30.01- 82.8 84.6----
2024-06-22 02:24 amENE 14.0 15.9----30.01- 82.8 84.7----
2024-06-22 02:18 amENE 12.0 15.0----30.01- 82.6 84.6----
2024-06-22 02:12 amENE 12.0 14.0----30.02- 82.8 84.6----
2024-06-22 02:06 amENE 12.0 14.0----30.02- 82.9 84.6----
2024-06-22 02:00 amENE 13.0 15.0----30.02-0.02 82.8 84.6----
2024-06-22 01:54 amENE 12.0 15.0----30.02- 82.6 84.6----
2024-06-22 01:48 amENE 14.0 15.9----30.02- 82.4 84.6----
2024-06-22 01:42 amENE 12.0 14.0----30.02- 82.6 84.6----
2024-06-22 01:36 am E 11.1 13.0----30.02- 82.2 84.7----
2024-06-22 01:30 amENE 9.9 13.0----30.02- 82.6 84.7----
2024-06-22 01:24 amENE 12.0 13.0----30.02- 82.6 84.7----
2024-06-22 01:18 amENE 12.0 14.0----30.02- 82.6 84.7----
2024-06-22 01:12 amENE 11.1 14.0----30.02- 82.6 84.7----
2024-06-22 01:06 amENE 12.0 14.0----30.02- 82.4 84.7----
2024-06-22 01:00 amENE 12.0 15.0----30.02+0.00 82.6 84.7----
2024-06-22 12:54 am E 12.0 14.0----30.02- 82.6 84.7----
2024-06-22 12:48 amENE 12.0 14.0----30.03- 82.4 84.7----
2024-06-22 12:42 amENE 12.0 15.9----30.03- 82.6 84.7----
2024-06-22 12:36 amENE 14.0 15.9----30.03- 82.6 84.7----
2024-06-22 12:30 amENE 13.0 15.9----30.03- 82.6 84.9----
2024-06-22 12:24 amENE 12.0 15.9----30.03- 82.6 84.9----
2024-06-22 12:18 amENE 12.0 15.9----30.03- 82.4 84.9----
2024-06-22 12:12 am E 9.9 15.0----30.03- 82.6 84.9----
2024-06-22 12:06 amENE 12.0 15.0----30.03- 82.2 84.9----
2024-06-22 12:00 amENE 9.9 12.0----30.03+0.02 82.6 84.9----
2024-06-21 11:54 pm E 9.9 11.1----30.03- 82.0 84.9----
2024-06-21 11:48 pm E 9.9 12.0----30.03- 81.9 84.9----
2024-06-21 11:42 pm E 11.1 14.0----30.03- 82.0 84.9----
2024-06-21 11:36 pm E 13.0 15.0----30.03- 82.4 84.9----
2024-06-21 11:30 pm E 13.0 17.1----30.04- 82.4 84.9----
2024-06-21 11:24 pm E 14.0 15.9----30.04- 82.8 84.9----
2024-06-21 11:18 pm E 14.0 17.1----30.04- 82.0 84.9----
2024-06-21 11:12 pmENE 13.0 17.1----30.04- 83.3 84.9----
2024-06-21 11:06 pmENE 14.0 18.1----30.04- 83.1 84.9----
2024-06-21 11:00 pmENE 15.0 17.1----30.03+0.03 82.9 85.1----
2024-06-21 10:54 pmENE 14.0 15.9----30.04- 83.1 85.1----
2024-06-21 10:48 pmENE 15.0 17.1----30.03- 82.9 85.1----
2024-06-21 10:42 pmENE 13.0 15.9----30.03- 82.8 85.1----
2024-06-21 10:36 pmENE 13.0 15.9----30.03- 82.9 85.1----
2024-06-21 10:30 pmENE 15.0 17.1----30.03- 82.9 85.1----
2024-06-21 10:24 pmENE 14.0 15.9----30.03- 82.8 85.1----
2024-06-21 10:18 pmENE 14.0 15.9----30.03- 82.9 85.1----
2024-06-21 10:12 pmENE 14.0 18.1----30.03- 83.1 85.1----
2024-06-21 10:06 pmENE 15.0 17.1----30.02- 82.8 85.1----
2024-06-21 10:00 pmENE 14.0 17.1----30.02- 82.9 85.1----
2024-06-21 09:54 pmENE 15.0 18.1----30.02- 83.1 85.1----
2024-06-21 09:48 pmENE 15.9 19.0----30.02- 82.9 85.1----
2024-06-21 09:42 pmENE 15.0 17.1----30.02- 82.9 85.1----
2024-06-21 09:36 pmENE 15.0 19.0----30.02- 83.3 85.1----
2024-06-21 09:30 pmENE 15.0 18.1----30.02- 82.9 85.1----
2024-06-21 09:24 pmENE 15.0 18.1----30.02- 83.3 85.1----
2024-06-21 09:18 pmENE 15.0 18.1----30.02- 82.9 85.3----
2024-06-21 09:12 pmENE 15.0 18.1----30.01- 83.5 85.3----
2024-06-21 09:06 pmENE 15.0 19.0----30.01- 83.1 85.3----
2024-06-21 09:00 pmENE 15.9 19.0----30.01+0.00 83.1 85.3----
2024-06-21 08:54 pmENE 15.0 17.1----30.01- 82.9 85.3----
2024-06-21 08:48 pm NE 14.0 15.9----30.01- 82.9 85.3----
2024-06-21 08:42 pmENE 15.0 17.1----30.01- 83.1 85.3----
2024-06-21 08:36 pmENE 15.9 18.1----30.01- 82.9 85.3----
2024-06-21 08:30 pmENE 15.0 17.1----30.01- 83.1 85.3----
2024-06-21 08:24 pmENE 15.0 18.1----30.01- 83.3 85.3----
2024-06-21 08:18 pmENE 15.0 18.1----30.01-- 85.5----
2024-06-21 08:12 pmENE 15.0 19.0----30.01-- 85.5----
2024-06-21 08:06 pmENE 15.0 18.1----30.01-- 85.5----
2024-06-21 08:00 pmENE 17.1 19.0----30.01+0.00 83.5 85.5----
2024-06-21 07:54 pm NE 15.9 18.1----30.00- 83.7 85.5----
2024-06-21 07:48 pm-------30.01- 83.8 85.5----
2024-06-21 07:42 pm-------30.01- 83.8 85.5----
2024-06-21 07:36 pm-------30.01- 83.8 85.5----
2024-06-21 07:30 pm-------30.01- 84.2 85.5----
2024-06-21 07:24 pm-------30.01- 84.0 85.5----
2024-06-21 07:18 pm NE 13.0 17.1----30.01- 84.2 85.5----
2024-06-21 07:12 pmENE 14.0 18.1----30.00- 84.0 85.5----
2024-06-21 07:06 pm NE 15.0 15.9----30.00- 84.2 85.6----
2024-06-21 07:00 pm NE 14.0 17.1------ 84.2 85.6----
2024-06-21 06:54 pm NE 15.0 18.1------ 83.8 85.6----
2024-06-21 06:48 pm NE 15.0 19.0----30.00- 84.0 85.6----
2024-06-21 06:42 pmENE 15.0 18.1----30.00- 84.2 85.6----
2024-06-21 06:36 pm NE 15.9 19.0----30.00- 83.8 85.6----
2024-06-21 06:30 pmENE 15.0 18.1----30.00- 84.2 85.6----
2024-06-21 06:24 pm NE 15.0 18.1----30.00- 84.2 85.6----
2024-06-21 06:18 pmENE 15.9 19.0----30.00-- 85.6----
2024-06-21 06:12 pm NE 15.9 18.1----30.00-- 85.6----
2024-06-21 06:06 pmENE 15.9 18.1----30.00-- 85.6----
2024-06-21 06:00 pmENE 15.9 20.0----30.00-0.04 84.4 85.6----
2024-06-21 05:54 pm NE 17.1 19.0----30.00- 84.2 85.6----
2024-06-21 05:48 pm-------30.00- 84.9 85.6----
2024-06-21 05:42 pm-------30.01- 84.6 85.6----
2024-06-21 05:36 pm-------30.01- 84.0 85.6----
2024-06-21 05:30 pm NE 15.9 19.0----30.01- 84.6 85.6----
2024-06-21 05:24 pmENE 17.1 20.0----30.00- 84.2 85.6----
2024-06-21 05:18 pm NE 18.1 20.0----30.01- 84.0 85.6----
2024-06-21 05:12 pmENE 17.1 21.0----30.01- 84.2 85.6----
2024-06-21 05:06 pm NE 18.1 20.0----30.01- 83.7 85.5----
2024-06-21 05:00 pm NE 15.9 19.0----30.01-0.04 83.8 85.5----
2024-06-21 04:54 pm NE 17.1 20.0----30.01- 83.7 85.5----
2024-06-21 04:48 pm NE 17.1 20.0----30.01- 83.3 85.5----
2024-06-21 04:42 pm NE 15.0 19.0----30.01- 84.0 85.5----
2024-06-21 04:36 pm NE 15.9 18.1----30.01- 83.7 85.5----
2024-06-21 04:30 pm NE 15.9 18.1----30.02- 83.7 85.5----
2024-06-21 04:24 pm NE 14.0 19.0----30.02- 84.0 85.5----
2024-06-21 04:18 pm NE 15.9 19.0----30.02- 83.7 85.5----
2024-06-21 04:12 pmENE 15.0 19.0----30.03- 84.0 85.5----
2024-06-21 04:06 pm NE 17.1 21.0----30.03- 83.8 85.5----
2024-06-21 04:00 pm NE 17.1 20.0----30.03-0.04 84.0 85.5----
2024-06-21 03:54 pmENE 15.9 19.0----30.03- 84.2 85.5----
2024-06-21 03:48 pmENE 17.1 20.0----30.03- 84.2 85.5----
2024-06-21 03:42 pm NE 18.1 21.0----30.03- 83.5 85.5----
2024-06-21 03:36 pm NE 15.9 20.0----30.03- 84.0 85.5----
2024-06-21 03:30 pm NE 17.1 21.0----30.03- 83.8 85.5----
2024-06-21 03:24 pm NE 17.1 20.0----30.03- 83.8 85.5----
2024-06-21 03:18 pm NE 18.1 20.0----30.03- 83.8 85.6----
2024-06-21 03:12 pm NE 15.0 18.1----30.03- 83.8 85.6----
2024-06-21 03:06 pm NE 15.9 19.0----30.03- 83.7 85.6----
2024-06-21 03:00 pm NE 15.0 20.0----30.04-0.04 84.2 85.6----
2024-06-21 02:54 pm NE 18.1 21.0----30.04- 83.8 85.6----
2024-06-21 02:48 pm NE 18.1 21.0----30.04- 83.8 85.5----
2024-06-21 02:42 pm NE 19.0 21.0----30.04- 83.8 85.5----
2024-06-21 02:36 pmENE 17.1 21.0----30.04- 83.8 85.5----
2024-06-21 02:30 pmENE 15.9 19.0----30.05- 84.0 85.5----
2024-06-21 02:24 pm NE 17.1 19.0----30.05- 83.7 85.5----
2024-06-21 02:18 pm NE 15.9 19.0----30.05- 83.7 85.5----
2024-06-21 02:12 pm NE 15.9 19.0----30.05- 83.8 85.5----
2024-06-21 02:06 pm NE 15.0 20.0----30.05- 83.8 85.3----
2024-06-21 02:00 pm NE 15.9 18.1----30.05-0.03 83.7 85.3----
2024-06-21 01:54 pm NE 15.9 19.0----30.05- 83.7 85.3----